Location: Unspecified
(0.0000°N, 0.0000°E)
Time: 18:27:45
(UTC+00:00)

STARLINK 1014 - Pass Details

Date: 19 January 2020
Orbit: 347 x 353 km, 53.0° (Epoch: 18 January)

Event Time Altitude Azimuth Distance (km) Brightness Sun altitude
Exits shadow 04:46:01 31° 36° (NE) 640 4.1 -19.7°
Drops below altitude 10° 04:47:39 10° 35° (NE) 1,292 5.7 -19.4°
Sets 04:49:39 0° 35° (NE) 2,129 6.8 -18.9°
